Powrót do katalogu

STARLINK-31597

AktywnyŁącznośćVLEO
NORAD 59464·PAYLOAD·🇺🇸 United States

Wystrzelony Apr 10, 2024 z Cape Canaveral Space Force Station

Loading…

Następne Przeloty (najbliższe 24 godziny)

TLE

ŚwieżeSource: CelesTrak SupGP

Epoka: Sep 14, 2026, 21:04 UTC

1 59464C 24068K   26257.87826389  .00071014  00000+0  25729-2 0  2577
2 59464  43.0041  46.1076 0001469 285.0905 172.0910 15.27534018    12

Śledź STARLINK-31597 w czasie rzeczywistym z AllMySat

Download on the App Store